Wind_Speed
10 10 14 18 17 17 27 34 31 35 38 44 36 36 39 39 35 33 34 21 19 18 16 14 14 15 16 17 16 14 13 14
13 12 15 18 20 22 24 34 31 37 37 41 42 42 38 35 38 41 23 18 20 19 19 17 18 21 19 18 19 19 19 19
19 17 20 22 25 29 31 33 31 35 35 41 43 43 37 41 39 32 24 23 23 22 21 21 21 23 22 22 23 22 21 22
28 24 25 26 28 33 35 35 36 39 42 38 36 40 35 44 45 34 27 27 24 21 21 21 24 27 25 23 24 23 23 23
33 29 29 31 30 32 36 37 38 39 39 37 39 41 42 48 46 36 30 30 28 26 24 24 27 26 25 25 24 25 26 26
42 37 32 30 32 34 35 36 37 40 41 39 41 40 40 42 42 37 35 33 30 30 29 28 29 29 31 29 28 29 27 27
44 41 35 36 34 34 37 39 42 45 43 41 39 36 36 37 39 37 34 33 33 34 33 31 30 30 31 32 31 29 28 27
47 45 44 40 41 41 40 43 47 47 43 40 39 37 35 35 34 35 35 35 34 33 32 33 32 28 33 33 34 32 30 29
47 50 46 45 45 46 46 49 50 48 44 42 40 38 38 39 37 36 36 35 31 26 26 29 27 28 35 31 32 32 29 28
51 50 48 47 49 51 52 51 53 50 46 42 43 43 44 42 40 41 41 38 33 30 28 31 31 31 19 21 20 21 22 24
45 50 51 50 49 52 53 53 53 51 49 47 45 42 43 42 43 44 42 41 33 29 31 31 29 28 19 18 19 17 24 25
41 42 46 51 52 48 53 54 54 52 50 48 47 44 42 42 41 46 36 34 24 27 33 32 34 25 20 20 22 20 22 22
30 39 46 47 51 51 52 49 48 44 39 37 39 39 39 41 44 34 27 24 37 35 32 35 31 22 23 22 23 23 20 23
22 24 35 43 47 49 47 46 44 40 38 37 37 38 39 36 39 39 38 28 35 35 34 27 27 24 23 23 22 19 20 22
20 18 17 18 34 40 44 44 43 43 32 31 35 36 40 44 47 44 38 34 29 26 27 24 25 23 23 24 23 20 20 19
25 21 18 17 18 23 39 40 39 38 37 37 35 39 36 44 47 41 34 26 27 26 26 25 24 23 23 22 21 19 18 16
30 26 22 19 16 18 32 41 39 40 41 36 35 33 29 36 32 34 33 28 27 25 25 23 23 21 20 18 17 17 17 16
35 31 28 26 23 21 21 31 34 36 37 34 33 33 34 32 30 29 28 27 25 24 22 20 20 20 19 20 20 18 18 18
35 35 33 33 30 27 25 27 28 28 27 27 31 31 31 31 29 28 26 24 23 22 22 22 22 22 21 21 20 18 16 15
Wind_Direction
206 198 188 198 201 205 197 184 179 177 176 181 174 174 174 177 171 173 181 196 197 198 206 214 222 229 227 237 241 235 239 239
209 203 190 190 191 187 185 177 179 178 186 184 185 183 182 186 179 185 195 205 211 213 218 221 223 226 232 241 247 243 236 231
208 204 194 190 185 189 183 184 185 188 188 186 187 190 191 192 194 196 203 210 218 222 231 234 236 234 234 241 243 245 239 236
201 201 198 191 189 190 193 194 191 189 189 197 196 200 204 196 196 205 210 217 223 227 232 239 236 236 239 250 252 248 245 245
202 199 200 199 193 191 193 194 197 197 195 198 198 194 196 200 203 207 211 223 226 233 238 242 239 246 249 258 259 257 249 252
204 201 204 201 201 195 195 198 199 195 193 192 189 192 197 199 205 210 222 225 230 237 240 242 240 245 251 255 255 251 244 254
208 205 203 200 202 199 194 193 191 187 188 193 198 203 204 207 214 222 227 230 236 240 241 243 247 252 251 253 254 249 259 266
204 206 206 202 201 199 197 192 189 191 196 202 206 209 212 216 220 224 227 230 233 238 241 244 247 253 254 254 248 252 262 268
203 210 211 208 207 204 202 200 197 201 208 211 212 216 220 226 229 232 232 232 233 242 246 246 247 251 252 254 254 257 260 256
205 207 216 215 212 211 210 209 210 212 214 216 219 222 226 232 237 243 246 244 241 245 255 252 254 260 244 243 241 246 254 252
213 210 214 221 222 220 216 217 217 217 218 221 222 224 231 237 244 247 250 242 243 241 247 250 247 253 232 236 237 247 254 249
215 218 224 224 226 222 223 221 222 223 223 224 224 228 233 241 246 250 252 228 244 236 250 249 253 228 236 239 235 253 250 242
224 228 231 228 227 223 228 230 226 224 227 232 234 235 238 244 247 263 274 248 239 241 252 246 249 231 239 231 241 246 237 232
195 215 229 228 229 231 231 227 223 220 226 233 233 233 235 243 249 241 243 247 236 244 250 233 219 232 233 236 234 234 237 227
193 170 191 220 233 232 227 229 229 226 233 233 229 233 236 238 241 239 242 243 235 227 216 218 226 229 233 229 219 224 220 221
204 196 207 207 208 220 223 226 230 231 227 235 234 240 230 233 233 234 233 212 212 214 219 221 224 227 222 212 215 209 210 202
210 205 214 219 219 212 214 219 219 219 222 231 227 232 228 218 210 203 199 200 209 216 218 221 215 208 203 201 198 194 197 209
210 205 220 224 223 228 217 213 219 218 218 220 221 201 196 193 192 194 198 207 211 208 204 198 187 188 192 187 188 203 211 224
211 209 218 223 222 218 212 203 203 206 206 203 194 194 192 185 189 195 199 200 196 193 189 187 191 186 193 199 205 210 214 224
Height
1482 1484 1486 1490 1492 1493 1494 1496 1500 1506 1512 1516 1520 1524 1525 1531 1534 1539 1543 1546 1549 1551 1553 1555 1557 1561 1562 1564 1567 1568 1570 1572
1484 1484 1484 1487 1490 1493 1495 1498 1502 1506 1511 1514 1519 1522 1524 1529 1533 1537 1541 1545 1549 1550 1551 1553 1555 1557 1559 1562 1565 1566 1567 1569
1483 1483 1484 1484 1487 1492 1496 1499 1503 1507 1509 1513 1517 1520 1523 1528 1532 1534 1539 1541 1544 1545 1547 1549 1552 1554 1556 1558 1561 1562 1564 1566
1479 1480 1483 1484 1485 1487 1491 1495 1499 1503 1508 1511 1515 1519 1523 1525 1527 1529 1534 1537 1540 1542 1544 1547 1548 1550 1553 1554 1556 1558 1559 1561
1475 1476 1477 1480 1481 1485 1488 1492 1497 1501 1506 1508 1511 1511 1514 1518 1524 1529 1532 1535 1538 1540 1541 1543 1544 1546 1547 1550 1552 1553 1556 1557
1468 1470 1473 1476 1481 1483 1487 1491 1494 1497 1500 1504 1507 1509 1514 1517 1522 1525 1529 1531 1533 1535 1537 1539 1540 1542 1542 1545 1546 1548 1549 1550
1463 1468 1472 1475 1478 1482 1485 1488 1491 1495 1498 1503 1506 1509 1512 1515 1519 1522 1525 1527 1529 1530 1532 1534 1536 1537 1539 1540 1541 1543 1543 1543
1459 1462 1465 1470 1474 1478 1482 1485 1488 1492 1495 1500 1503 1507 1510 1511 1514 1517 1519 1521 1523 1525 1527 1528 1530 1533 1533 1533 1535 1536 1537 1538
1450 1452 1456 1462 1467 1471 1477 1480 1484 1488 1491 1496 1500 1503 1505 1506 1509 1511 1513 1515 1517 1520 1521 1523 1525 1526 1527 1528 1529 1531 1532 1533
1443 1447 1450 1454 1460 1462 1465 1471 1476 1480 1485 1491 1492 1495 1498 1501 1504 1506 1508 1510 1512 1516 1518 1519 1521 1519 1520 1521 1523 1525 1526 1527
1436 1440 1444 1447 1451 1456 1462 1464 1465 1469 1477 1481 1485 1491 1496 1498 1499 1501 1503 1504 1507 1509 1508 1512 1511 1513 1514 1516 1518 1520 1521 1522
1433 1436 1438 1442 1447 1453 1451 1457 1462 1467 1471 1475 1485 1488 1490 1493 1496 1497 1497 1492 1498 1496 1500 1504 1506 1508 1509 1510 1512 1515 1516 1517
1427 1430 1433 1437 1442 1446 1447 1450 1460 1469 1474 1481 1481 1485 1488 1489 1490 1486 1486 1485 1492 1494 1494 1497 1500 1502 1504 1505 1507 1509 1510 1513
1423 1426 1428 1431 1435 1440 1444 1448 1453 1458 1464 1465 1472 1476 1478 1481 1480 1481 1485 1483 1484 1489 1490 1490 1494 1497 1499 1500 1502 1505 1507 1509
1420 1422 1424 1427 1430 1433 1437 1440 1445 1449 1453 1456 1459 1461 1465 1466 1472 1474 1476 1477 1479 1483 1486 1487 1490 1492 1494 1495 1496 1500 1503 1504
1417 1418 1419 1422 1424 1427 1430 1434 1437 1442 1446 1448 1449 1452 1455 1459 1462 1466 1469 1472 1476 1479 1481 1482 1485 1487 1489 1490 1492 1495 1498 1500
1412 1414 1415 1417 1420 1423 1425 1428 1432 1435 1438 1441 1443 1446 1450 1454 1456 1461 1465 1468 1471 1473 1476 1478 1480 1482 1484 1486 1488 1491 1494 1497
1407 1409 1411 1412 1414 1416 1418 1422 1426 1429 1432 1435 1439 1442 1446 1450 1453 1457 1460 1464 1466 1468 1471 1473 1476 1478 1479 1482 1485 1488 1490 1491
1401 1405 1406 1408 1409 1411 1415 1418 1420 1424 1428 1432 1436 1441 1443 1445 1449 1452 1455 1458 1460 1463 1466 1470 1470 1472 1476 1479 1481 1483 1485 1485